Retour au catalogue

FREGAT DEB

LostUNKNOWN
NORAD 47246·DEBRIS·🇷🇺 Russia

Lancé Jul 18, 2011 depuis Baikonur Cosmodrome

Loading…

Prochains Passages (prochaines 24 heures)

TLE

PériméSource: Space-Track

Époque: Aug 1, 2022, 07:40 UTC

1 47246U 11037NK  22213.31976361  .00000016  00000-0  18630-3 0  9999
2 47246  50.9947  84.9072 1270984 233.5960 114.0982 11.69482804 70755

Suivez FREGAT DEB en temps réel avec AllMySat

Download on the App Store